[[{"header":{"parameterUnit":"m.s-1","parameterCategory":1,"la1":30.2991,"la2":30.254,"lo1":-89.0895,"lo2":-89.0444,"dy":0.0017,"dx":0.0017,"nx":28,"ny":28,"refTime":"2025-06-09T09:00:00:Z","depth":0,"parameterNumber":2,"parameterNumberName":"U-component_of_WINDS"},"data":[0,0,0,0,0,0,0,0,0,0,0,0,0,0,0,0,0,0,0,0,0,0,0,0,0,0,0,0,0,0,0,0,0,0,0,0,0,0,0,0,0,0,0,0,0,0,0,0,0,0,0,0,0,0,0,0,0,0,4.7062,4.7063,0,4.7136,4.7137,4.7138,4.7033,4.703,4.7026,4.7022,4.7097,4.7102,4.7108,0,0,0,0,0,0,0,0,0,0,0,0,0,4.6826,4.6831,4.7062,4.7063,4.7064,4.7136,4.7137,4.7138,4.7034,4.7029,4.7025,4.7021,4.7095,4.7102,4.7108,0,0,0,0,0,0,0,0,0,0,0,0,0,4.6917,4.6833,4.7062,4.7021,4.7018,4.7136,4.7137,4.7138,4.7035,4.7029,4.7024,4.7019,4.7093,4.7101,4.7109,4.7271,0,0,4.7134,4.7138,0,0,0,0,0,0,0,0,4.6912,4.6926,4.7026,4.7024,4.702,4.707,4.7081,4.7183,4.7036,4.7028,4.7022,4.7016,4.7092,4.71,4.7126,4.7274,4.7277,4.7135,4.714,4.7143,4.7146,0,0,0,0,0,0,0,4.6906,4.6922,4.7091,4.7027,4.7024,4.6997,4.7004,4.71,4.7091,4.7029,4.7021,4.7031,4.709,4.7119,4.7127,4.7278,4.7135,4.7142,4.7147,4.715,4.7558,4.7563,0,0,0,0,0,0,4.6905,4.6918,4.7089,4.7093,4.6952,4.7006,4.7013,4.706,4.7089,4.7088,4.7036,4.7026,4.7108,4.7118,4.713,4.7317,4.7143,4.7151,4.7156,4.7552,4.7559,4.7565,0,0,0,0,0,0,4.6901,4.6922,4.7086,4.7004,4.7022,4.7016,4.7068,4.7064,4.7092,4.7095,4.7092,4.7068,4.7104,4.7118,4.7235,4.7318,4.7155,4.7162,4.7545,4.7554,4.7562,4.7696,0,0,0,0,0,0,4.6894,4.6921,4.6983,4.7006,4.7027,4.7192,4.7074,4.7069,4.7107,4.7095,4.7124,4.7123,4.71,4.7224,4.7244,4.7327,4.7168,4.7537,4.7549,4.7559,4.7684,4.7708,4.7729,0,0,0,0,0,4.6886,4.7018,4.6987,4.7008,4.7105,4.7197,4.7209,4.718,4.7114,4.7176,4.7177,4.7122,4.7307,4.7237,4.7258,4.7345,4.7532,4.7546,4.7559,4.7674,4.7704,4.7729,0,0,0,0,0,0,4.7006,4.7021,4.6986,4.7129,4.7163,4.7179,4.7256,4.7213,4.7266,4.7252,4.7214,4.7221,4.7346,4.7358,4.7279,4.75,4.7408,4.7426,4.7488,4.7517,4.7539,4.7532,4.7175,0,0,0,0,0,4.7049,4.7123,4.7132,4.7257,4.7276,4.7264,4.7302,4.7277,4.731,4.7323,4.7333,4.7366,4.7431,4.7475,4.7535,4.7686,4.7688,4.7756,4.7778,4.7797,4.7812,4.7889,4.7918,4.7609,4.7609,4.7609,0,0,4.7138,4.7156,4.7205,4.7282,4.7304,4.738,4.7276,4.7362,4.7417,4.7336,4.7447,4.7455,4.7489,4.7623,4.7683,4.7636,4.7898,4.7814,4.7828,4.7834,4.7905,4.7935,4.7961,4.7618,4.7617,4.7615,0,0,4.7339,4.7362,4.7467,4.7491,4.7527,4.7517,4.7543,4.7566,4.7568,4.7678,4.7618,4.7683,4.7797,4.7822,4.785,4.8059,4.8009,4.8079,4.8196,4.8272,4.8296,4.8317,4.8388,4.8414,4.8095,4.8096,4.8096,0,4.7446,4.7559,4.7526,4.7615,4.7649,4.758,4.7684,4.771,4.7764,4.7788,4.7735,4.7874,4.7893,4.8029,4.808,4.8106,4.8132,4.8075,4.8295,4.8316,4.8335,4.8403,4.843,4.8104,4.8103,4.8102,4.8101,0,4.7686,4.7765,4.7846,4.7898,4.7942,4.8039,4.8019,4.8066,4.8037,4.8033,4.8144,4.8163,4.8224,4.8256,4.8229,4.8388,4.8358,4.8301,4.8207,4.8373,4.8436,4.8461,4.8115,4.8112,4.811,4.8108,0,0,4.7965,4.7997,4.8027,4.8048,4.8081,4.8141,4.8233,4.8292,4.8332,4.8372,4.8446,4.8542,4.8489,4.8521,4.8496,4.8562,4.8721,4.8497,4.8497,4.8535,4.8894,4.8934,4.8965,4.869,4.8694,4.8698,4.889,0,4.8163,4.8323,4.8295,4.8449,4.8519,4.8453,4.8533,4.8561,4.8559,4.8617,4.8615,4.8682,4.8609,4.8627,4.869,4.8689,4.8793,4.8675,4.8756,4.8759,4.8747,4.8998,4.9042,4.9222,4.8915,4.8919,4.8922,0,4.8416,4.8463,4.8624,4.8643,4.8671,4.8744,4.8794,4.8852,4.8881,4.8874,4.8909,4.8871,4.896,4.8866,4.8987,4.8908,4.8939,4.8944,4.895,4.8954,4.8849,4.9006,4.9279,4.9305,4.8961,4.8957,4.8955,0,4.8599,4.8703,4.8811,4.8832,4.8858,4.8909,4.8922,4.8946,4.8983,4.9027,4.9049,4.9104,4.9133,4.9175,4.9151,4.9086,4.9276,4.9181,4.927,4.9271,4.9312,4.9309,4.959,4.9337,4.9337,4.9336,4.9336,0,4.8821,4.8922,4.8893,4.896,4.9069,4.9036,4.9145,4.915,4.9171,4.9236,4.9183,4.9245,4.9211,4.927,4.9252,4.9353,4.9367,4.9363,4.9356,4.9366,4.9366,4.9384,4.937,4.9343,4.9342,4.934,4.9339,0,4.9043,4.9029,4.9142,4.9157,4.9162,4.9242,4.9253,4.9315,4.9308,4.9391,4.9408,4.9397,4.9463,4.9444,4.9517,4.9504,4.9631,4.961,4.9621,4.9615,4.9704,4.9695,5.0005,5.0042,4.9768,4.9771,4.9773,0,4.9185,4.926,4.9282,4.9322,4.9338,4.9404,4.944,4.9409,4.9449,4.9487,4.9543,4.9604,4.9651,4.976,4.9757,4.9811,4.9789,4.9894,4.9797,4.9803,4.9787,4.9781,4.9787,4.9913,4.9916,4.9919,4.9921,0,4.9437,4.9425,4.948,4.9532,4.9577,4.9616,4.9651,4.9686,4.9657,4.9705,4.9771,4.9808,4.988,4.9941,4.9989,5.0001,4.9955,4.9951,4.9974,4.9984,4.9985,4.9982,4.967,4.9944,4.9942,4.994,4.9939,4.9938,4.9621,4.9683,4.9707,4.9769,4.9792,4.9825,4.9881,4.9881,4.9937,4.9993,4.9971,5.0047,5.0071,5.0132,5.015,5.0207,5.0167,5.0201,5.0209,5.0217,5.0227,4.9979,5.0216,5.0216,5.0215,5.0214,5.0214,0,4.9866,4.9878,4.9936,4.9985,5.0033,4.9987,5.0022,5.0064,5.0132,5.0159,5.0206,5.0281,5.0338,5.034,5.0394,5.0439,5.0419,5.0454,5.0449,5.0451,5.0262,5.0235,5.0469,5.0469,5.0469,5.0469,5.0469,5.0468,5.0,5.0102,5.0093,5.0204,5.0215,5.0289,5.0312,5.0341,5.0362,5.0448,5.0496,5.0496,5.0512,5.0566,5.0616,5.0615,5.0635,5.0677,5.0668,5.0491,5.0465,5.0441,5.0415,5.0683,5.0683,5.0852,5.0854,5.0855]},{"header":{"parameterUnit":"m.s-1","parameterCategory":1,"la1":30.2991,"la2":30.254,"lo1":-89.0895,"lo2":-89.0444,"dy":0.0017,"dx":0.0017,"nx":28,"ny":28,"refTime":"2025-06-09T09:00:00:Z","depth":0,"parameterNumber":3,"parameterNumberName":"V-component_of_WINDS"},"data":[0,0,0,0,0,0,0,0,0,0,0,0,0,0,0,0,0,0,0,0,0,0,0,0,0,0,0,0,0,0,0,0,0,0,0,0,0,0,0,0,0,0,0,0,0,0,0,0,0,0,0,0,0,0,0,0,0,0,4.8678,4.8682,0,4.9017,4.9021,4.9025,4.9056,4.9052,4.9049,4.9045,4.9388,4.94,4.9413,0,0,0,0,0,0,0,0,0,0,0,0,0,4.8051,4.8062,4.8678,4.8682,4.8686,4.9017,4.9021,4.9026,4.9056,4.9052,4.9048,4.9044,4.9384,4.9399,4.9414,0,0,0,0,0,0,0,0,0,0,0,0,0,4.835,4.8066,4.8677,4.8742,4.8751,4.9016,4.9021,4.9027,4.9057,4.9052,4.9047,4.9042,4.9379,4.9397,4.9416,4.9638,0,0,4.9473,4.9481,0,0,0,0,0,0,0,0,4.8333,4.8373,4.8728,4.8738,4.8748,4.8989,4.8926,4.9232,4.9059,4.8941,4.9045,4.9039,4.9259,4.9288,4.9363,4.9654,4.9669,4.9475,4.9486,4.9494,4.9499,0,0,0,0,0,0,0,4.8312,4.8358,4.8812,4.8733,4.8746,4.8752,4.8788,4.8984,4.9126,4.8951,4.8954,4.8994,4.9264,4.9345,4.9371,4.9674,4.9474,4.9491,4.9502,4.951,5.0162,5.0168,0,0,0,0,0,0,4.828,4.8341,4.8801,4.8822,4.8523,4.8767,4.8808,4.8917,4.9124,4.915,4.8998,4.8994,4.9315,4.9349,4.9383,4.9657,4.9494,4.9511,4.9522,5.0156,5.0164,5.017,0,0,0,0,0,0,4.8266,4.8321,4.8788,4.8583,4.8643,4.8784,4.8906,4.8926,4.9008,4.916,4.9184,4.9055,4.9313,4.9357,4.9574,4.9669,4.952,4.9537,5.0149,5.0159,5.0167,5.0205,0,0,0,0,0,0,4.8248,4.8316,4.8404,4.8584,4.8653,4.8975,4.8912,4.8937,4.904,4.9038,4.922,4.9245,4.9312,4.9546,4.9593,4.9692,4.9551,5.0141,5.0153,5.0164,5.0196,5.0214,5.023,0,0,0,0,0,4.8226,4.84,4.8408,4.8463,4.8766,4.8981,4.902,4.9095,4.9048,4.9136,4.9233,4.9239,4.965,4.9568,4.9621,4.9727,5.0136,5.015,5.0163,5.0188,5.0211,5.023,0,0,0,0,0,0,4.8227,4.8425,4.8436,4.8675,4.8811,4.8986,4.91,4.9117,4.9268,4.926,4.9345,4.9385,4.9599,4.9685,4.959,4.9952,4.9888,4.9913,4.9889,4.9911,4.9928,4.9904,4.9567,0,0,0,0,0,4.8254,4.8414,4.8578,4.8773,4.884,4.8958,4.9054,4.91,4.9244,4.9301,4.9414,4.9552,4.9712,4.9816,4.9972,5.0207,5.0247,5.0306,5.0323,5.0336,5.0357,5.0486,5.0514,5.0216,5.0216,5.0215,0,0,4.8314,4.8442,4.8537,4.8776,4.8887,4.9048,4.9006,4.9179,4.9299,4.9327,4.954,4.9627,4.9786,5.0013,5.0118,5.0091,5.0448,5.0354,5.0363,5.0377,5.0503,5.0531,5.0556,5.0225,5.0223,5.0222,0,0,4.8505,4.8618,4.8792,4.8904,4.9072,4.9149,4.919,4.9362,4.9422,4.9637,4.966,4.9802,5.0077,5.0189,5.0282,5.0511,5.0521,5.0559,5.0649,5.0773,5.0797,5.0818,5.0899,5.0927,5.0579,5.0579,5.0579,0,4.8557,4.8803,4.8879,4.9051,4.9154,4.9187,4.9363,4.9466,4.9676,4.9746,4.9711,5.0056,5.0165,5.0418,5.0473,5.0547,5.0596,5.054,5.0787,5.0809,5.083,5.0908,5.0939,5.0583,5.0582,5.0582,5.0581,0,4.8858,4.9028,4.9147,4.935,4.9467,4.9639,4.9739,4.9848,4.9882,4.9961,5.0177,5.0309,5.0492,5.0555,5.059,5.0812,5.0789,5.077,5.0708,5.0861,5.0936,5.0966,5.0588,5.0586,5.0585,5.0584,0,0,4.9062,4.9303,4.9346,4.9437,4.9623,4.9755,4.9927,5.0107,5.0197,5.0339,5.0485,5.0715,5.0698,5.0803,5.085,5.0959,5.1131,5.0927,5.0932,5.096,5.1382,5.1396,5.1429,5.1138,5.1144,5.1149,5.1368,0,4.9274,4.9585,4.9657,4.9922,5.0078,5.011,5.026,5.0389,5.0466,5.0608,5.0693,5.0855,5.082,5.0884,5.0993,5.1087,5.1217,5.1072,5.1273,5.1279,5.1234,5.1469,5.1485,5.1686,5.1398,5.1403,5.1407,0,4.9564,4.9713,4.9995,5.0158,5.0227,5.0361,5.0529,5.0665,5.0811,5.0859,5.0975,5.1011,5.1189,5.1116,5.1361,5.1261,5.1346,5.1404,5.1414,5.1437,5.1353,5.1498,5.1752,5.1782,5.1454,5.145,5.1447,0,4.9684,4.9955,5.0158,5.0235,5.0432,5.0525,5.061,5.0751,5.0853,5.0999,5.1066,5.123,5.1321,5.1446,5.1523,5.1463,5.1762,5.1696,5.1806,5.1804,5.1869,5.1864,5.2141,5.1923,5.1922,5.1922,5.1921,0,4.9913,5.0084,5.0215,5.034,5.0531,5.061,5.0796,5.0882,5.1006,5.1146,5.1182,5.1312,5.1407,5.155,5.1611,5.1804,5.1844,5.1887,5.1902,5.1885,5.188,5.1943,5.1932,5.193,5.1928,5.1926,5.1925,0,5.0081,5.0175,5.0399,5.0565,5.0611,5.0744,5.0886,5.1007,5.1084,5.1261,5.1307,5.1428,5.1597,5.1687,5.1899,5.194,5.2156,5.2162,5.2108,5.2114,5.2219,5.2208,5.2548,5.2596,5.2344,5.2346,5.2348,0,5.0222,5.0354,5.0535,5.0632,5.072,5.0876,5.098,5.1061,5.1168,5.1342,5.1442,5.1614,5.1756,5.2025,5.213,5.2291,5.2302,5.2409,5.2326,5.2304,5.2303,5.2295,5.2308,5.2424,5.2427,5.2429,5.243,0,5.0462,5.0501,5.0652,5.0818,5.0941,5.1076,5.1208,5.1285,5.1387,5.1505,5.168,5.179,5.2005,5.2175,5.2344,5.2429,5.2447,5.2455,5.2489,5.2474,5.2437,5.2459,5.2148,5.2448,5.2446,5.2445,5.2444,5.2443,5.0621,5.0739,5.0885,5.105,5.1158,5.128,5.1402,5.1494,5.1641,5.1825,5.1862,5.2046,5.2185,5.2414,5.2504,5.2648,5.2626,5.2675,5.2688,5.2699,5.2703,5.2413,5.2678,5.2678,5.2678,5.2677,5.2677,0,5.0863,5.0957,5.1108,5.1293,5.1422,5.1427,5.1573,5.1681,5.1843,5.1971,5.211,5.2309,5.2473,5.2589,5.2755,5.2847,5.2859,5.2888,5.2883,5.2902,5.2714,5.2668,5.2876,5.2876,5.2876,5.2876,5.2876,5.2876,5.1004,5.1205,5.126,5.1513,5.1606,5.1788,5.1871,5.1983,5.2086,5.2307,5.2443,5.2519,5.2642,5.2817,5.2966,5.2996,5.3055,5.3084,5.3114,5.2937,5.2915,5.2895,5.2853,5.3096,5.3096,5.3291,5.3293,5.3294]}]]